Tracking 30696 objects as of 16-Jun-2025
HD Live streaming from Space Station
objects crossing your sky now

STARLINK-31157

Track STARLINK-31157 now!
10-day predictions
STARLINK-31157 is classified as:


NORAD ID: 58735
Int'l Code: 2024-005H
Perigee: 565.0 km
Apogee: 567.5 km
Inclination: 43.0 °
Period: 95.8 minutes
Semi major axis: 6937 km
RCS: Unknown
Launch date: January 7, 2024
Source: United States (US)
Launch site: AIR FORCE EASTERN TEST RANGE (AFETR)
Your satellite tracking list
Your tracking list is empty




NASA's NSSDC Master Catalog

Two Line Element Set (TLE):
1 58735U 24005H   25166.48849952 -.00000605  00000-0 -29708-4 0  9991
2 58735  43.0036 233.8585 0001763 268.9340  91.1300 15.02529909 80227
Source of the keplerian elements: AFSPC